Pittsfield, IL

2:18 AM CST on February 21, 2018 (GMT -0600)
Pittsfield Penstone Municipal

Weather History for KPPQ - January, 2006

Change the Weather History Date:

Friday, January 13, 2006

  Actual Average (KUIN) Record (KUIN)
Temperature  
Mean Temperature 39 °F -  
Max Temperature 48 °F 31 °F 58 °F (1932)
Min Temperature 30 °F 15 °F -20 °F (1912)
Degree Days  
Heating Degree Days 26    
Moisture  
Dew Point 32 °F    
Average Humidity 87    
Maximum Humidity 100    
Minimum Humidity 65    
Precipitation  
Precipitation 0.10 in - - ()
Sea Level Pressure  
Sea Level Pressure 29.74 in    
Wind  
Wind Speed 13 mph (WNW)    
Max Wind Speed 24 mph    
Max Gust Speed 33 mph    
Visibility 6 miles    
Events Rain , Snow , Thunderstorm    
Averages and records for this station are not official NWS values.
T = Trace of Precipitation, MM = Missing Value Source: NWS Daily Summary

Daily Weather History Graph

Daily Weather History Graph

Search for Another Location

Airport or City:

Trip Planner

Search our weather history database for the weather conditions in past years. The results will help you decide how hot, cold, wet, or windy it might be!

Date:

Astronomy

Jan. 13, 2006 Rise Set
Actual Time 7:22 AM CST 5:01 PM CST
Civil Twilight 6:53 AM CST 5:30 PM CST
Nautical Twilight 6:19 AM CST 6:04 PM CST
Astronomical Twilight 5:47 AM CST 6:36 PM CST
Moon 4:12 PM CST (1/13) 7:16 AM CST (1/13)
Length of Visible Light 10h 37m
Length of Day
9h 38m
Full, 100% of the Moon is Illuminated
Jan 13
Full
Jan 14
Full
Jan 22
Last Quarter
Jan 29
New
Feb 5
First Quarter

Hourly Weather History & Observations

Time (CST) Temp. Windchill Dew Point Humidity Pressure Visibility Wind Dir Wind Speed Gust Speed Precip Events Conditions
12:02 AM 46.4 °F - 46.4 °F 100% 29.56 in 4.0 mi Calm Calm - N/A   Overcast
12:22 AM 46.4 °F - 46.4 °F 100% 29.57 in 5.0 mi Calm Calm - N/A   Overcast
12:42 AM 46.4 °F - 46.4 °F 100% 29.55 in 4.0 mi Calm Calm - N/A   Overcast
1:02 AM 46.4 °F 43.5 °F 46.4 °F 100% 29.55 in 4.0 mi WNW 5.8 mph - N/A   Overcast
1:22 AM 48.2 °F - 46.4 °F 93% 29.54 in 5.0 mi WNW 8.1 mph - N/A Rain , Thunderstorm Light Thunderstorms and Rain
1:42 AM 44.6 °F 37.8 °F 39.2 °F 81% 29.56 in 10.0 mi NW 15.0 mph 21.9 mph N/A Rain , Thunderstorm Light Thunderstorms and Rain
2:02 AM 42.8 °F 36.6 °F 39.2 °F 87% 29.58 in 10.0 mi WNW 11.5 mph - N/A Rain Light Rain
2:22 AM 41.0 °F 34.7 °F 37.4 °F 87% 29.57 in 10.0 mi WNW 10.4 mph 16.1 mph N/A   Overcast
2:42 AM 39.2 °F 30.2 °F 35.6 °F 87% 29.56 in 10.0 mi West 17.3 mph 24.2 mph N/A   Overcast
3:02 AM 39.2 °F 29.8 °F 35.6 °F 87% 29.56 in 7.0 mi WNW 18.4 mph 21.9 mph N/A   Overcast
3:22 AM 37.4 °F 26.9 °F 35.6 °F 93% 29.56 in 7.0 mi WNW 20.7 mph 29.9 mph N/A   Overcast
3:42 AM 37.4 °F 27.5 °F 35.6 °F 93% 29.57 in 5.0 mi WNW 18.4 mph 24.2 mph N/A   Drizzle
4:02 AM 37.4 °F 28.5 °F 35.6 °F 93% 29.57 in 5.0 mi WNW 15.0 mph 26.5 mph N/A   Light Drizzle
4:22 AM 35.6 °F 25.5 °F 35.6 °F 100% 29.57 in 1.8 mi WNW 17.3 mph 26.5 mph 0.03 in Snow Snow
4:42 AM 35.6 °F 25.5 °F 35.6 °F 100% 29.58 in 3.0 mi WNW 17.3 mph 24.2 mph N/A Rain Light Rain
5:02 AM 35.6 °F 25.5 °F 33.8 °F 93% 29.59 in 2.5 mi WNW 17.3 mph - 0.01 in Rain Rain
5:22 AM 35.6 °F 26.2 °F 33.8 °F 93% 29.60 in 2.5 mi WNW 15.0 mph 24.2 mph 0.06 in   Overcast
5:42 AM 35.6 °F 25.5 °F 33.8 °F 93% 29.60 in 3.0 mi WNW 17.3 mph 23.0 mph N/A Snow Light Snow
6:02 AM 35.6 °F 24.8 °F 33.8 °F 93% 29.61 in 4.0 mi WNW 19.6 mph 27.6 mph 0.01 in Snow Light Snow
6:22 AM 35.6 °F 25.2 °F 33.8 °F 93% 29.63 in 5.0 mi WNW 18.4 mph 26.5 mph N/A Rain Light Rain
6:42 AM 35.6 °F 26.2 °F 33.8 °F 93% 29.64 in 7.0 mi WNW 15.0 mph 31.1 mph 0.01 in Rain Light Rain
7:02 AM 35.6 °F 26.2 °F 33.8 °F 93% 29.64 in 5.0 mi WNW 15.0 mph 26.5 mph N/A   Overcast
7:22 AM 33.8 °F 23.2 °F 32.0 °F 93% 29.66 in 2.5 mi WNW 17.3 mph 31.1 mph N/A Snow Light Snow
7:42 AM 33.8 °F 23.9 °F 32.0 °F 93% 29.67 in 2.0 mi WNW 15.0 mph 24.2 mph N/A Snow Light Snow
8:02 AM 33.8 °F 23.5 °F 32.0 °F 93% 29.68 in 2.0 mi WNW 16.1 mph 28.8 mph N/A Snow Light Snow
8:22 AM 33.8 °F 22.5 °F 32.0 °F 93% 29.69 in 4.0 mi WNW 19.6 mph 26.5 mph N/A Snow Light Snow
8:42 AM 33.8 °F 22.2 °F 30.2 °F 87% 29.70 in 7.0 mi WNW 20.7 mph 27.6 mph N/A Snow Light Snow
9:02 AM 33.8 °F 23.9 °F 32.0 °F 93% 29.71 in 3.0 mi WNW 15.0 mph 24.2 mph N/A Snow Light Snow
9:22 AM 33.8 °F 21.3 °F 30.2 °F 87% 29.72 in 2.0 mi WNW 24.2 mph 29.9 mph N/A Snow Light Snow
9:42 AM 33.8 °F 23.9 °F 30.2 °F 87% 29.72 in 5.0 mi WNW 15.0 mph 33.4 mph N/A Snow Light Snow
10:02 AM 32.0 °F 20.8 °F 30.2 °F 93% 29.73 in 4.0 mi WNW 17.3 mph 28.8 mph N/A   Overcast
10:22 AM 32.0 °F 20.8 °F 30.2 °F 93% 29.73 in 4.0 mi WNW 17.3 mph 26.5 mph N/A   Overcast
10:44 AM 32.0 °F 20.5 °F 28.4 °F 87% 29.74 in 3.0 mi WNW 18.4 mph 27.6 mph N/A Snow Light Snow
11:04 AM 30.2 °F 18.9 °F 28.4 °F 93% 29.75 in 1.2 mi WNW 16.1 mph 28.8 mph N/A Snow Light Snow
12:02 PM 30.2 °F 18.9 °F 28.4 °F 93% 29.74 in 1.0 mi WNW 16.1 mph 28.8 mph N/A Snow Light Snow
12:24 PM 30.2 °F 18.1 °F 28.4 °F 93% 29.75 in 1.0 mi WNW 18.4 mph 26.5 mph N/A Snow Light Snow
12:42 PM 30.2 °F 18.1 °F 28.4 °F 93% 29.76 in 1.5 mi WNW 18.4 mph 25.3 mph N/A Snow Light Snow
1:02 PM 30.2 °F 18.1 °F 28.4 °F 93% 29.77 in 5.0 mi WNW 18.4 mph 26.5 mph N/A Snow Light Snow
1:22 PM 30.2 °F 16.8 °F 26.6 °F 86% 29.78 in 10.0 mi WNW 23.0 mph 29.9 mph N/A   Overcast
1:42 PM 30.2 °F 17.4 °F 26.6 °F 86% 29.79 in 10.0 mi WNW 20.7 mph 31.1 mph N/A   Overcast
2:02 PM 30.2 °F 17.1 °F 26.6 °F 86% 29.80 in 10.0 mi WNW 21.9 mph 28.8 mph N/A   Overcast
2:22 PM 30.2 °F 18.9 °F 26.6 °F 86% 29.82 in 10.0 mi WNW 16.1 mph 27.6 mph N/A   Overcast
2:42 PM 32.0 °F 20.1 °F 26.6 °F 80% 29.83 in 10.0 mi WNW 19.6 mph 25.3 mph N/A   Overcast
3:02 PM 32.0 °F 20.5 °F 28.4 °F 87% 29.84 in 10.0 mi WNW 18.4 mph 27.6 mph N/A   Overcast
3:24 PM 33.8 °F 23.5 °F 28.4 °F 81% 29.85 in 10.0 mi WNW 16.1 mph 21.9 mph N/A   Overcast
3:42 PM 33.8 °F 22.5 °F 28.4 °F 81% 29.86 in 10.0 mi WNW 19.6 mph - N/A   Overcast
4:02 PM 33.8 °F 22.2 °F 28.4 °F 81% 29.88 in 10.0 mi WNW 20.7 mph 29.9 mph N/A   Overcast
4:22 PM 35.6 °F 25.5 °F 26.6 °F 70% 29.88 in 10.0 mi WNW 17.3 mph 26.5 mph N/A   Scattered Clouds
4:42 PM 35.6 °F 25.5 °F 24.8 °F 65% 29.89 in 10.0 mi WNW 17.3 mph 21.9 mph N/A   Clear
5:02 PM 35.6 °F 24.5 °F 24.8 °F 65% 29.90 in 10.0 mi WNW 20.7 mph 26.5 mph N/A   Clear
5:22 PM 33.8 °F 23.2 °F 24.8 °F 70% 29.91 in 10.0 mi WNW 17.3 mph 25.3 mph N/A   Clear
5:42 PM 33.8 °F 23.5 °F 26.6 °F 75% 29.93 in 10.0 mi WNW 16.1 mph 25.3 mph N/A   Clear
6:02 PM 33.8 °F 22.8 °F 26.6 °F 75% 29.94 in 10.0 mi WNW 18.4 mph 31.1 mph N/A   Clear
6:24 PM 33.8 °F 22.8 °F 26.6 °F 75% 29.96 in 10.0 mi WNW 18.4 mph 32.2 mph N/A   Clear
7:02 PM 32.0 °F 20.5 °F 24.8 °F 75% 29.99 in 10.0 mi WNW 18.4 mph 29.9 mph N/A   Clear
7:22 PM 30.2 °F 18.1 °F 24.8 °F 80% 30.00 in 10.0 mi WNW 18.4 mph 29.9 mph N/A   Clear
7:42 PM 30.2 °F 18.5 °F 24.8 °F 80% 30.00 in 10.0 mi WNW 17.3 mph 23.0 mph N/A   Scattered Clouds
8:02 PM 30.2 °F 18.5 °F 24.8 °F 80% 30.01 in 10.0 mi WNW 17.3 mph 25.3 mph N/A   Scattered Clouds
8:22 PM 30.2 °F 18.9 °F 24.8 °F 80% 30.01 in 10.0 mi WNW 16.1 mph 24.2 mph N/A   Scattered Clouds
8:43 PM 30.2 °F 17.8 °F 24.8 °F 80% 30.02 in 10.0 mi WNW 19.6 mph 26.5 mph N/A   Scattered Clouds
9:03 PM 30.2 °F 18.9 °F 24.8 °F 80% 30.03 in 10.0 mi WNW 16.1 mph 25.3 mph N/A   Clear
9:24 PM 30.2 °F 18.5 °F 24.8 °F 80% 30.04 in 10.0 mi WNW 17.3 mph 26.5 mph N/A   Clear
9:42 PM 30.2 °F 19.3 °F 24.8 °F 80% 30.05 in 10.0 mi WNW 15.0 mph 25.3 mph N/A   Clear
10:04 PM 30.2 °F 18.1 °F 24.8 °F 80% 30.05 in 10.0 mi WNW 18.4 mph 26.5 mph N/A   Clear
10:22 PM 30.2 °F 18.1 °F 24.8 °F 80% 30.06 in 10.0 mi WNW 18.4 mph 25.3 mph N/A   Clear
10:42 PM 30.2 °F 18.1 °F 24.8 °F 80% 30.07 in 10.0 mi WNW 18.4 mph 25.3 mph N/A   Scattered Clouds
11:02 PM 30.2 °F 18.9 °F 24.8 °F 80% 30.07 in 10.0 mi WNW 16.1 mph 28.8 mph N/A   Clear
11:22 PM 30.2 °F 19.3 °F 24.8 °F 80% 30.08 in 10.0 mi WNW 15.0 mph 20.7 mph N/A   Clear
11:42 PM 28.4 °F 18.0 °F 24.8 °F 86% 30.09 in 10.0 mi WNW 12.7 mph 19.6 mph N/A   Clear